Location: Newark
(52.3500°N, 175.9667°E)
Time: 21:43:37
(UTC+00:00)

Altair - Pass Details

Date: 30 April 2021
Orbit: 1501 x 1683 km, 47.2° (Epoch: 05 May)

Event Time Altitude Azimuth Distance (km) Brightness Sun altitude
Rises 14:36:29 0° 212° (SSW) 4,921 - -15.9°
Reaches altitude 10° 14:40:01 10° 204° (SSW) 3,926 - -15.6°
Exits shadow 14:42:03 17° 196° (SSW) 3,402 8.7 -15.4°
Maximum altitude 14:48:45 35° 143° (SE) 2,431 8.4 -14.8°
Drops below altitude 10° 14:57:16 10° 83° (E) 3,838 10.3 -13.9°
Sets 15:00:39 0° 75° (ENE) 4,799 11.1 -13.6°
